sat.trackr.live / text

‹ back to catalog

UNKNOWN

NORAD 81779

UNKNOWN UNKNOWN UNKNOWN

§ Identity

Operator
Country
Launch date
Launch site
Launch vehicle
Mass (kg)
RCS (m²)

External: N2YO · Heavens-Above

§ Orbital elements

Epoch: 2026-05-22T21:06:01.412064Z

Period
154.00 min
Inclination
54.5146°
Eccentricity
0.1515978
Mean motion
9.35038304 rev/d
Perigee alt
1,696.4 km
Apogee alt
4,582.0 km
Semi-major
9,517.3 km
B*
1.0163e+0
RAAN
329.5571°
Arg perigee
189.5101°
Mean anomaly
167.3562°
Rev number
49,537

§ Raw data

UNKNOWN1 81779U          26142.87918301  .00017409  00000+0  10163+1 0  99952 81779  54.5146 329.5571 1515978 189.5101 167.3562  9.35038304495375

JSON: /api/v1/satellites/81779 · /tle

For live sub-satellite position, see the globe view (requires WebGL).

§ Visibility from observer

Set your observer location to see the next 7 days of passes ≥ 10°. The values pass through the URL so the page stays shareable.

No JS? Fill the form by hand. The geolocation button needs JavaScript.